GW6523 Weather Reports


time (UTC)temp
C
wind
direction
speed
KPH
gust
KPH
rain 1hr
cm
rain 24hr
cm
rain mn
cm
humidity
%
barometer
mb
20260503195506 17 220 4.8 14.5 0.00 0.00 0.00 37 1002.8
20260503195005 17 227 6.4 14.5 0.00 0.00 0.00 40 1003.0
20260503194109 17 264 4.8 11.3 0.00 0.00 0.00 38 1003.3
20260503194004 17 314 4.8 11.3 0.00 0.00 0.00 39 1003.3
20260503193030 17 207 4.8 9.7 0.00 0.00 0.00 38 1003.6
20260503193004 17 220 4.8 9.7 0.00 0.00 0.00 38 1003.6
20260503192603 17 206 4.8 9.7 0.00 0.00 0.00 40 1003.7
20260503192504 17 255 4.8 9.7 0.00 0.00 0.00 38 1003.8
20260503192008 17 210 4.8 9.7 0.00 0.00 0.00 36 1003.7
20260503191604 17 105 4.8 9.7 0.00 0.00 0.00 40 1003.9
20260503191516 17 298 3.2 9.7 0.00 0.00 0.00 38 1003.8
20260503191015 17 269 4.8 12.9 0.00 0.00 0.00 41 1003.8
20260503190005 17 284 3.2 8.0 0.00 0.00 0.00 39 1004.1
20260503185603 17 1 3.2 9.7 0.00 0.00 0.00 40 1004.2
20260503185505 17 304 3.2 9.7 0.00 0.00 0.00 40 1004.2
20260503185004 17 269 3.2 11.3 0.00 0.00 0.00 37 1004.0
20260503184604 17 250 4.8 14.5 0.00 0.00 0.00 39 1004.2
20260503184515 17 257 4.8 14.5 0.00 0.00 0.00 38 1004.2
20260503184109 17 195 4.8 14.5 0.00 0.00 0.00 41 1004.3
20260503184004 17 223 6.4 11.3 0.00 0.00 0.00 39 1004.3
20260503183505 17 213 4.8 11.3 0.00 0.00 0.00 37 1004.3
20260503183004 17 329 4.8 12.9 0.00 0.00 0.00 39 1004.4
20260503182507 17 213 6.4 12.9 0.00 0.00 0.00 39 1004.6
20260503182104 17 283 4.8 11.3 0.00 0.00 0.00 35 1004.5
20260503182005 17 206 4.8 11.3 0.00 0.00 0.00 42 1004.6
20260503181604 17 317 4.8 11.3 0.00 0.00 0.00 37 1004.7
20260503181505 17 208 6.4 11.3 0.00 0.00 0.00 35 1004.7
20260503181103 17 185 6.4 11.3 0.00 0.00 0.00 38 1004.6
20260503181004 17 221 4.8 14.5 0.00 0.00 0.00 40 1004.7
20260503180019 17 226 6.4 16.1 0.00 0.00 0.00 35 1004.8
20260503175505 17 178 6.4 11.3 0.00 0.00 0.00 36 1004.8
20260503175104 17 195 4.8 11.3 0.00 0.00 0.00 35 1004.7
20260503174505 17 228 4.8 9.7 0.00 0.00 0.00 41 1004.9
20260503174108 17 215 4.8 8.0 0.00 0.00 0.00 35 1004.9
20260503174010 17 206 6.4 8.0 0.00 0.00 0.00 36 1004.9
20260503173005 17 248 3.2 11.3 0.00 0.00 0.00 40 1005.2
20260503172004 17 221 3.2 9.7 0.00 0.00 0.00 39 1005.4
20260503171505 17 232 4.8 11.3 0.00 0.00 0.00 39 1005.6
20260503171004 17 319 3.2 11.3 0.00 0.00 0.00 38 1005.6
20260503170604 17 344 3.2 8.0 0.00 0.00 0.00 44 1005.7
20260503170504 17 135 3.2 8.0 0.00 0.00 0.00 40 1005.7
20260503151006 14 156 1.6 6.4 0.00 0.00 0.00 53 1007.1
20260503131004 7 213 1.6 6.4 0.00 0.00 0.00 68 1007.1
20260503130515 7 307 1.6 9.7 0.00 0.00 0.00 70 1007.0
20260503090504 1 250 1.6 3.2 0.00 0.00 0.00 90 1005.7
20260503081519 1 269 0.0 1.6 0.00 0.00 0.00 88 1005.6
20260503081504 1 178 0.0 1.6 0.00 0.00 0.00 88 1005.6
20260503081005 1 223 0.0 1.6 0.00 0.00 0.00 88 1005.7
20260503080608 1 269 0.0 1.6 0.00 0.00 0.00 88 1005.6
20260503080504 1 223 0.0 1.6 0.00 0.00 0.00 88 1005.6
20260503072603 1 46 0.0 1.6 0.00 0.00 0.00 87 1005.5
20260503072504 1 46 0.0 1.6 0.00 0.00 0.00 87 1005.5
20260503072004 1 206 0.0 1.6 0.00 0.00 0.00 87 1005.4
20260503071514 1 178 0.0 1.6 0.00 0.00 0.00 86 1005.5
20260503070608 1 178 0.0 1.6 0.00 0.00 0.00 86 1005.5
20260503070509 1 46 0.0 1.6 0.00 0.00 0.00 86 1005.5
20260503055007 2 178 0.0 0.0 0.00 0.00 0.00 83 1005.8
20260503054518 2 178 0.0 1.6 0.00 0.00 0.00 83 1005.8
20260503054504 2 178 0.0 1.6 0.00 0.00 0.00 83 1005.8
20260503054004 2 178 0.0 1.6 0.00 0.00 0.00 83 1005.8
20260503053519 2 46 0.0 1.6 0.00 0.00 0.00 83 1005.8
20260503053505 2 89 0.0 1.6 0.00 0.00 0.00 83 1005.8
20260503053018 2 331 0.0 1.6 0.00 0.00 0.00 83 1005.8
20260503053004 2 314 0.0 1.6 0.00 0.00 0.00 83 1005.8
20260503052504 2 1 0.0 1.6 0.00 0.00 0.00 83 1005.9
20260503052004 2 269 1.6 1.6 0.00 0.00 0.00 83 1005.9
20260503051505 2 234 1.6 1.6 0.00 0.00 0.00 82 1005.8
20260503051019 2 269 1.6 1.6 0.00 0.00 0.00 82 1005.8
20260503050520 2 269 1.6 1.6 0.00 0.00 0.00 81 1005.9
20260503050037 3 269 0.0 1.6 0.00 0.00 0.00 81 1005.9
20260503050015 3 314 0.0 1.6 0.00 0.00 0.00 81 1005.9
20260503045505 3 269 0.0 1.6 0.00 0.00 0.00 80 1006.0
20260503045004 3 269 0.0 1.6 0.00 0.00 0.00 80 1005.9
20260503044519 3 240 0.0 1.6 0.00 0.00 0.00 79 1005.8
20260503044504 3 269 0.0 1.6 0.00 0.00 0.00 79 1005.8
20260503044004 3 269 0.0 1.6 0.00 0.00 0.00 79 1005.8
20260503043515 3 46 0.0 1.6 0.00 0.00 0.00 79 1005.9
20260503043019 3 269 0.0 1.6 0.00 0.00 0.00 78 1005.9
20260503042505 3 269 0.0 1.6 0.00 0.00 0.00 78 1005.9
20260503042004 3 295 0.0 3.2 0.00 0.00 0.00 77 1005.9
20260503041506 3 269 0.0 3.2 0.00 0.00 0.00 78 1005.9
20260503041019 4 223 1.6 3.2 0.00 0.00 0.00 77 1005.9
20260503040012 4 269 0.0 1.6 0.00 0.00 0.00 76 1006.0
20260503035505 4 269 0.0 1.6 0.00 0.00 0.00 75 1006.1
20260503034004 5 269 0.0 1.6 0.00 0.00 0.00 73 1006.2
20260503033515 5 269 0.0 1.6 0.00 0.00 0.00 72 1006.1
20260503033004 5 269 0.0 1.6 0.00 0.00 0.00 72 1006.1
20260503032019 5 240 0.0 1.6 0.00 0.00 0.00 70 1006.1
20260503032005 5 253 0.0 1.6 0.00 0.00 0.00 70 1006.0
20260503031504 6 178 0.0 1.6 0.00 0.00 0.00 68 1006.0
20260503030609 6 269 0.0 1.6 0.00 0.00 0.00 67 1006.0
20260503030505 6 240 0.0 1.6 0.00 0.00 0.00 66 1006.0
20260503030018 6 223 0.0 1.6 0.00 0.00 0.00 64 1006.0
20260503025004 6 269 0.0 1.6 0.00 0.00 0.00 63 1006.0
20260503024505 6 46 0.0 1.6 0.00 0.00 0.00 61 1005.9
20260503024004 6 295 0.0 1.6 0.00 0.00 0.00 60 1005.9
20260503023504 7 331 0.0 1.6 0.00 0.00 0.00 61 1005.9
20260503023018 7 295 0.0 1.6 0.00 0.00 0.00 61 1005.9
20260503023007 7 295 0.0 1.6 0.00 0.00 0.00 61 1005.8
20260503022103 7 269 0.0 1.6 0.00 0.00 0.00 59 1005.7
20260503022004 7 286 0.0 1.6 0.00 0.00 0.00 58 1005.7
20260503021505 7 302 0.0 1.6 0.00 0.00 0.00 57 1005.7
20260503021004 7 314 0.0 1.6 0.00 0.00 0.00 58 1005.7
20260503020018 7 46 0.0 1.6 0.00 0.00 0.00 55 1005.6
20260503020006 7 314 0.0 1.6 0.00 0.00 0.00 55 1005.5
20260503015504 7 314 0.0 3.2 0.00 0.00 0.00 56 1005.5
20260503015004 7 314 1.6 4.8 0.00 0.00 0.00 56 1005.4
20260503014004 8 324 3.2 4.8 0.00 0.00 0.00 53 1005.2
20260503013018 8 327 1.6 9.7 0.00 0.00 0.00 52 1005.2
20260503013004 8 20 1.6 9.7 0.00 0.00 0.00 53 1005.2
20260503012504 8 1 3.2 9.7 0.00 0.00 0.00 53 1005.0
20260503012005 8 344 3.2 6.4 0.00 0.00 0.00 53 1005.0
20260503011504 8 1 3.2 6.4 0.00 0.00 0.00 53 1004.9
20260503011005 8 349 1.6 4.8 0.00 0.00 0.00 52 1004.9
20260503010019 8 331 3.2 4.8 0.00 0.00 0.00 51 1004.8
20260503010006 8 331 3.2 4.8 0.00 0.00 0.00 51 1004.9
20260503005505 8 327 1.6 8.0 0.00 0.00 0.00 51 1004.8
20260503004504 9 18 1.6 4.8 0.00 0.00 0.00 50 1004.7
20260503004005 9 352 3.2 4.8 0.00 0.00 0.00 49 1004.7
20260503003505 9 13 1.6 4.8 0.00 0.00 0.00 50 1004.7
20260503003018 9 1 1.6 4.8 0.00 0.00 0.00 49 1004.6
20260503003006 9 89 1.6 4.8 0.00 0.00 0.00 49 1004.5
20260503002004 10 342 3.2 8.0 0.00 0.00 0.00 47 1004.4
20260503001504 10 223 1.6 6.4 0.00 0.00 0.00 48 1004.3
20260503001015 10 318 1.6 9.7 0.00 0.00 0.00 49 1004.3
20260503000508 10 344 1.6 9.7 0.00 0.00 0.00 47 1004.2
20260503000029 10 1 3.2 6.4 0.00 0.00 0.00 48 1004.2
20260503000005 10 9 3.2 6.4 0.00 0.00 0.00 48 1004.2
20260502235504 10 165 1.6 6.4 0.00 0.00 0.00 47 1004.2
20260502235004 10 323 1.6 6.4 0.00 0.00 0.00 46 1004.2
20260502234518 10 152 3.2 9.7 0.00 0.00 0.00 46 1004.1
20260502234009 11 25 3.2 9.7 0.00 0.00 0.00 45 1004.1
20260502233603 11 314 3.2 9.7 0.00 0.00 0.00 45 1004.0
20260502233516 11 250 3.2 6.4 0.00 0.00 0.00 45 1004.1
20260502233019 11 327 3.2 6.4 0.00 0.00 0.00 45 1004.1
20260502232505 11 318 3.2 8.0 0.00 0.00 0.00 44 1004.1
20260502232004 11 324 3.2 11.3 0.00 0.00 0.00 46 1004.1
20260502231603 11 326 4.8 11.3 0.00 0.00 0.00 46 1004.0
20260502231504 11 56 3.2 8.0 0.00 0.00 0.00 44 1004.0
20260502231004 11 115 3.2 8.0 0.00 0.00 0.00 44 1004.1
20260502230506 11 44 3.2 8.0 0.00 0.00 0.00 42 1004.0
20260502230018 11 322 3.2 8.0 0.00 0.00 0.00 42 1003.9
20260502230005 11 194 3.2 8.0 0.00 0.00 0.00 42 1004.0
20260502225016 11 325 3.2 8.0 0.00 0.00 0.00 46 1003.9
20260502224516 11 347 3.2 8.0 0.00 0.00 0.00 45 1003.9
20260502224015 11 1 4.8 8.0 0.00 0.00 0.00 43 1003.9
20260502223518 11 89 3.2 12.9 0.00 0.00 0.00 42 1003.9
20260502223504 11 352 4.8 12.9 0.00 0.00 0.00 42 1003.9
20260502223018 11 1 4.8 12.9 0.00 0.00 0.00 41 1003.9
20260502223004 11 346 4.8 12.9 0.00 0.00 0.00 41 1003.9
20260502222504 11 302 3.2 9.7 0.00 0.00 0.00 41 1003.9
20260502222004 11 305 4.8 12.9 0.00 0.00 0.00 43 1003.9
20260502221516 11 56 4.8 12.9 0.00 0.00 0.00 43 1003.9
20260502221114 11 42 6.4 9.7 0.00 0.00 0.00 42 1003.8
20260502221005 11 333 6.4 9.7 0.00 0.00 0.00 40 1003.8
20260502220505 11 213 4.8 9.7 0.00 0.00 0.00 42 1003.8
20260502220019 11 324 3.2 8.0 0.00 0.00 0.00 43 1003.7
20260502220008 11 339 231.7 1054.1 20.14 0.18 0.00 43
20260502215603 11 305 3.2 8.0 0.00 0.00 0.00 44 1003.6
20260502215507 11 28 3.2 8.0 0.00 0.00 0.00 43 1003.7
20260502215103 11 314 4.8 14.5 0.00 0.00 0.00 40 1003.7
20260502215004 11 347 4.8 14.5 0.00 0.00 0.00 42 1003.7
20260502214504 11 324 6.4 14.5 0.00 0.00 0.00 39 1003.7
20260502214004 12 59 4.8 12.9 0.00 0.00 0.00 41 1003.7
20260502213508 12 314 4.8 11.3 0.00 0.00 0.00 41 1003.7
20260502213033 12 346 4.8 11.3 0.00 0.00 0.00 44 1003.7
20260502212511 12 341 4.8 12.9 0.00 0.00 0.00 40 1003.6
20260502212004 12 333 6.4 12.9 0.00 0.00 0.00 42 1003.6
20260502211504 12 331 4.8 9.7 0.00 0.00 0.00 41 1003.6
20260502211004 12 274 3.2 11.3 0.00 0.00 0.00 41 1003.6
20260502210504 12 324 4.8 12.9 0.00 0.00 0.00 40 1003.6
20260502210018 12 331 6.4 12.9 0.00 0.00 0.00 41 1003.6
20260502210005 12 46 6.4 12.9 0.00 0.00 0.00 41 1003.6
20260502205515 12 1 3.2 11.3 0.00 0.00 0.00 40 1003.5
20260502205015 12 1 3.2 9.7 0.00 0.00 0.00 45 1003.6
20260502204505 12 336 4.8 12.9 0.00 0.00 0.00 41 1003.6
20260502204004 12 117 4.8 12.9 0.00 0.00 0.00 42 1003.5
20260502203504 12 11 4.8 11.3 0.00 0.00 0.00 43 1003.6
20260502203020 12 338 6.4 11.3 0.00 0.00 0.00 40 1003.5
20260502203016 12 328 6.4 11.3 0.00 0.00 0.00 40 1003.5
20260502202504 12 117 4.8 11.3 0.00 0.00 0.00 42 1003.5
20260502202004 12 21 4.8 11.3 0.00 0.00 0.00 40 1003.6
20260502201504 12 13 6.4 11.3 0.00 0.00 0.00 40 1003.7
20260502201016 12 39 4.8 11.3 0.00 0.00 0.00 43 1003.7